ECMWFNIL_500_rhum_057.txt.gz
RH
5 5 5 7 9 9 7 5 5 6 6 6 6 6 6 6 5 5 5 5 6 6 6 5 5 5 5 5 5 5 5 5 5 6 7 7 7 8 9 9 9 8
4 5 5 6 8 9 8 6 4 5 5 5 5 6 5 5 5 5 5 4 5 5 5 5 5 5 5 5 5 5 5 5 6 8 9 11 13 14 13 11 10 10
4 4 5 5 6 8 8 7 5 4 4 4 5 5 6 5 5 5 5 4 4 4 5 5 5 5 5 5 5 5 6 9 12 16 19 21 24 25 23 21 18 15
5 4 4 5 5 7 8 8 6 4 4 4 5 6 6 5 5 5 4 4 4 4 4 4 5 5 5 4 6 9 13 18 22 24 26 27 28 29 29 29 28 27
5 4 4 4 4 6 7 8 7 5 5 5 6 6 6 6 5 5 4 3 3 4 4 4 4 4 5 9 13 18 22 25 26 26 26 26 26 27 28 29 30 31
4 4 4 4 4 5 6 7 8 7 6 6 6 6 6 6 5 4 4 3 3 4 4 4 4 6 11 17 21 23 24 24 25 24 23 23 24 24 24 26 29 29
4 4 4 4 3 4 5 6 7 7 7 7 7 7 6 6 6 5 4 4 4 4 5 5 8 13 17 20 21 21 20 20 21 22 23 23 24 24 24 25 27 28
5 4 4 4 4 3 4 5 6 6 7 7 7 7 7 7 6 5 4 4 4 5 6 8 11 16 17 17 16 16 18 19 21 23 25 26 27 27 26 26 26 27
5 4 4 4 4 4 4 4 5 5 6 7 7 7 7 7 6 6 5 4 4 5 7 9 12 14 14 13 13 14 16 18 20 23 26 27 28 29 29 28 27 26
5 4 4 4 4 4 4 4 5 5 5 5 6 7 7 6 6 6 5 5 4 5 7 8 10 12 12 12 11 12 14 15 17 20 25 28 30 31 32 31 30 27
5 5 4 4 5 4 4 4 4 5 5 5 5 5 6 6 6 6 6 5 4 4 6 7 8 10 11 11 11 11 12 13 15 18 23 29 31 32 33 34 33 30
5 6 5 5 5 4 5 5 4 5 5 5 5 5 5 5 5 5 5 5 5 4 5 6 7 9 11 11 11 11 10 10 12 15 20 27 32 33 34 35 36 33
4 5 6 6 5 4 5 4 4 5 5 5 5 5 5 5 5 5 5 5 5 4 4 5 6 9 11 12 12 12 11 9 9 11 14 22 29 33 35 36 37 35
4 4 5 6 6 5 5 5 5 5 5 5 5 5 5 5 5 5 5 5 5 4 4 4 5 8 11 13 13 13 12 11 10 10 10 15 24 32 36 36 36 36
7 4 4 4 5 5 5 5 5 5 5 5 5 5 5 5 5 5 5 5 4 4 4 4 4 6 9 13 14 14 14 12 11 10 9 11 19 29 36 36 33 34
16 11 7 5 4 5 6 5 5 5 5 5 5 5 5 5 5 5 5 5 5 4 4 4 4 5 7 10 13 14 15 13 12 10 7 8 15 26 35 37 34 32
24 19 14 11 7 5 4 5 5 5 5 6 5 5 5 5 5 5 5 5 5 5 4 4 4 4 5 7 10 13 15 14 13 10 7 6 11 22 34 40 38 34
29 25 22 17 12 9 6 5 5 5 5 6 6 6 5 5 5 6 6 5 5 5 5 4 4 4 4 5 7 11 14 16 14 11 9 7 8 17 30 40 42 38
35 30 27 22 16 12 9 7 5 5 5 5 6 6 6 5 5 5 6 6 5 5 5 5 4 4 4 4 5 9 13 16 15 13 12 9 6 11 25 37 41 41
40 35 32 27 21 14 10 9 7 5 5 5 5 6 6 5 5 5 6 6 6 6 5 5 5 4 4 4 4 7 10 14 16 14 13 12 7 7 18 32 39 40
41 38 34 31 26 18 11 9 7 6 6 5 5 6 6 6 5 5 5 5 5 6 6 5 5 5 4 4 4 5 8 12 15 15 15 14 10 6 11 24 33 36
41 39 35 32 30 23 15 8 6 7 7 6 6 6 5 6 5 5 5 5 5 5 5 5 5 5 4 4 3 4 6 10 14 15 15 15 12 7 7 16 26 32
42 39 35 33 31 27 20 11 6 6 6 6 6 6 6 6 5 5 5 5 5 5 4 4 4 4 4 4 3 4 4 7 12 15 15 15 13 9 6 10 20 27
45 41 38 36 34 31 25 15 7 5 6 6 6 6 6 6 5 5 5 4 5 5 4 4 3 3 4 4 4 4 3 5 9 13 15 14 12 10 7 6 12 20
49 45 41 38 37 36 31 22 13 6 5 6 6 6 6 6 5 4 4 4 4 4 4 4 3 3 3 4 4 3 3 4 5 9 13 13 11 10 8 5 6 12
46 43 41 40 40 40 38 32 22 13 7 5 6 6 6 6 5 5 4 4 4 4 4 4 4 3 3 3 4 3 3 3 3 5 8 10 10 9 8 6 5 7

ECMWFNIL_500_rhum_060.txt.gz
RH
5 6 7 9 10 8 7 7 6 7 7 7 7 8 8 7 7 7 6 6 5 4 4 4 4 4 4 4 4 4 5 5 7 7 7 7 7 8 7 6 7 8
5 6 6 8 9 9 7 6 6 6 6 7 6 6 7 7 6 7 6 6 5 4 4 4 4 4 4 4 4 4 5 5 7 8 8 9 8 8 8 7 8 8
4 5 6 7 8 9 8 6 5 6 6 6 6 6 6 6 6 6 6 6 5 4 4 4 4 4 4 4 4 5 7 8 10 13 14 15 13 10 9 8 8 8
5 5 5 6 8 8 8 7 5 5 6 6 6 6 5 6 6 6 5 5 5 4 4 4 4 4 4 4 5 8 11 14 17 21 23 23 22 20 18 15 13 12
4 5 5 5 7 7 8 7 5 5 5 5 5 5 5 5 5 6 5 5 5 4 4 4 4 3 4 6 9 14 18 20 21 24 25 26 26 26 26 25 23 20
4 4 5 5 6 7 7 8 7 5 5 4 4 5 5 6 5 5 5 4 4 4 4 4 4 3 6 10 16 20 21 22 22 23 24 24 25 26 26 27 27 25
5 4 5 5 5 6 7 8 7 6 5 5 4 5 5 5 5 5 5 4 4 4 4 4 3 5 10 16 21 22 22 23 23 22 23 24 24 24 25 27 27 26
5 4 4 5 4 5 6 7 8 6 6 5 5 6 6 6 6 5 5 5 4 4 4 4 4 8 15 20 21 22 22 23 23 23 24 25 25 25 25 26 27 27
5 4 4 5 4 5 5 5 7 7 6 6 6 6 6 6 6 5 5 5 4 4 5 5 7 11 16 19 19 20 21 23 24 25 26 27 28 28 27 27 27 27
5 4 4 5 4 4 4 4 5 6 7 7 6 7 7 7 7 6 6 6 5 5 5 6 9 12 15 16 17 19 21 24 26 27 28 29 29 30 31 30 29 28
6 5 4 4 5 4 4 4 4 5 6 6 7 7 7 7 7 7 7 6 6 5 4 5 8 11 13 13 14 17 20 23 25 25 27 29 31 32 32 33 33 31
7 6 5 4 4 4 4 4 4 4 5 5 6 6 7 7 7 7 7 6 6 6 5 5 6 9 12 12 12 14 16 18 19 19 21 25 30 32 33 34 34 34
7 7 6 5 4 4 5 4 4 4 4 5 5 5 6 6 6 6 6 6 6 6 5 5 5 7 10 11 11 12 13 15 16 16 17 20 25 29 32 34 35 35
7 7 7 7 5 5 4 4 5 4 4 5 5 6 6 6 6 6 6 6 6 6 5 5 5 5 7 10 11 11 12 13 15 14 13 13 17 21 26 33 36 35
6 6 7 7 6 6 4 4 5 4 5 5 5 6 6 6 6 6 6 6 5 5 5 5 5 4 6 8 10 11 12 13 13 12 10 8 10 13 18 28 35 35
8 5 6 6 6 6 5 5 5 4 5 5 5 5 6 6 6 6 6 6 5 5 5 5 5 5 5 7 9 11 12 13 13 12 10 9 8 9 13 22 32 36
16 8 5 5 6 7 6 5 5 5 5 5 4 5 5 5 6 5 6 6 5 5 5 5 5 5 5 5 6 9 11 12 14 14 12 10 8 8 10 15 28 36
26 17 10 6 4 5 6 6 5 5 5 5 5 5 5 5 5 5 6 6 6 6 5 5 5 5 5 5 5 6 8 11 14 15 14 12 8 8 8 10 20 34
37 26 20 14 8 5 4 5 6 5 5 5 5 5 5 5 5 5 6 6 6 6 5 5 6 5 5 5 5 5 5 8 12 14 15 14 11 9 8 6 12 26
52 37 28 22 16 12 8 5 4 5 5 5 5 5 5 5 5 5 5 6 6 6 6 5 6 6 5 5 5 5 5 5 8 12 14 15 13 11 10 7 7 17
61 48 37 29 23 19 15 11 7 5 5 5 5 5 5 5 6 6 5 6 6 6 6 6 6 6 6 5 5 5 5 4 5 9 12 15 16 13 12 10 7 9
64 56 44 35 29 24 20 17 12 8 6 5 5 5 6 5 6 6 6 6 6 6 6 6 6 6 6 6 6 5 5 5 4 6 9 13 16 16 14 14 11 7
65 61 51 41 34 29 24 20 16 12 9 7 6 5 6 6 6 7 7 7 6 6 6 6 6 6 6 6 6 6 5 5 4 4 7 11 15 16 16 15 13 10
61 59 55 47 38 33 31 25 19 15 10 8 8 7 6 7 7 7 7 7 7 6 6 6 5 5 5 5 5 5 5 5 4 4 5 8 13 15 16 16 15 14
58 52 52 51 43 38 36 31 24 18 12 8 7 7 7 7 7 7 7 7 7 6 6 6 6 5 4 4 4 5 5 5 4 4 4 6 10 13 14 15 15 15
58 47 46 49 47 43 39 35 29 22 16 10 7 7 8 8 8 8 8 7 7 7 6 6 6 5 5 4 3 4 4 4 4 4 3 4 7 10 12 13 14 14

ECMWFNIL_500_rhum_063.txt.gz
RH
8 10 10 9 10 9 9 9 9 9 11 11 11 10 10 8 7 7 6 5 6 5 5 6 6 6 7 7 8 8 8 8 7 8 8 7 7 6 7 7 8 9
6 8 9 9 9 10 9 8 8 8 9 10 9 9 8 7 6 6 6 5 6 5 5 5 5 6 6 7 7 7 7 7 7 8 8 8 8 7 7 8 10 11
6 7 8 9 9 10 10 8 7 8 8 8 8 8 7 6 6 6 6 5 5 5 5 5 5 5 6 6 7 7 7 7 8 8 8 9 9 8 8 9 10 11
6 6 7 8 9 9 9 8 7 7 7 7 7 7 6 6 6 5 5 5 5 5 5 5 5 5 5 6 7 7 8 9 10 11 11 10 9 9 9 9 9 10
5 6 6 7 8 9 9 8 8 7 7 7 6 6 6 6 6 5 5 5 4 5 4 5 5 5 5 6 7 8 10 13 16 18 19 17 15 13 12 11 10 10
5 5 6 7 7 8 8 8 8 7 6 6 6 6 6 6 5 5 5 5 4 4 4 4 4 5 5 6 8 11 15 20 23 25 26 25 24 23 21 19 16 14
5 5 5 6 7 8 8 8 8 7 7 6 6 6 6 5 5 5 5 5 4 4 4 4 4 4 6 8 12 17 20 24 26 27 28 28 28 27 26 25 24 22
5 5 5 5 6 7 8 8 8 7 7 6 6 6 5 5 5 5 5 5 4 4 4 4 3 5 8 12 17 21 23 25 26 27 28 27 27 27 27 27 27 26
5 5 5 5 5 6 7 8 8 8 7 6 6 5 5 5 5 6 5 5 5 4 4 4 4 7 12 17 21 22 23 25 26 26 26 26 26 26 25 26 27 28
6 5 5 5 5 5 6 7 8 8 8 7 7 6 5 5 5 5 6 6 6 5 5 5 5 8 15 20 21 23 24 25 25 26 26 25 25 25 25 25 26 27
8 6 5 5 6 5 5 6 6 7 8 8 7 7 6 6 6 6 6 6 6 6 5 5 6 9 15 19 21 22 23 24 25 26 26 26 25 26 26 26 27 28
11 9 6 5 5 5 5 5 5 6 7 8 8 7 7 7 6 7 7 7 7 6 6 5 6 9 14 17 19 20 22 23 25 26 27 27 27 27 28 28 28 28
12 11 10 7 5 5 5 5 5 5 6 7 7 7 7 7 7 7 7 7 7 7 6 6 5 7 11 14 16 18 21 23 25 26 25 25 26 28 29 28 28 28
12 13 12 10 7 5 5 5 5 5 5 6 6 7 7 7 7 8 8 8 8 7 7 6 5 6 8 11 13 14 17 20 22 21 19 18 20 23 25 27 28 30
10 11 13 12 10 7 5 5 5 5 5 5 5 6 6 7 7 7 7 8 7 7 7 7 6 6 7 10 13 13 14 15 15 15 13 12 13 14 16 19 22 26
10 10 11 12 12 10 7 6 5 5 5 5 5 5 5 6 6 6 7 7 7 7 7 6 6 6 6 8 11 13 13 12 11 12 12 11 10 9 9 10 12 16
12 9 9 10 11 11 9 7 6 5 5 5 5 5 5 5 5 6 6 6 6 6 6 6 6 6 6 7 9 11 13 13 12 12 12 11 9 9 9 8 8 9
15 11 8 8 10 10 10 9 7 6 5 5 5 5 5 5 5 6 6 6 6 6 6 6 6 6 6 6 6 8 11 13 13 12 13 12 11 10 10 10 9 8
18 14 10 8 8 9 9 9 8 6 6 5 5 5 5 5 5 6 6 6 6 6 6 6 6 6 6 6 6 6 7 9 12 13 13 13 13 13 12 12 11 10
21 18 16 12 9 8 8 8 8 7 7 6 5 5 5 5 5 5 6 6 6 6 6 6 7 7 6 6 6 6 6 6 7 9 11 13 14 15 15 14 13 12
30 26 24 20 15 10 8 7 8 8 8 7 6 5 5 5 5 5 5 5 6 6 6 6 7 7 6 6 6 6 6 6 6 6 7 9 12 15 16 17 16 15
42 36 32 28 23 18 12 9 7 8 8 8 8 7 6 5 5 5 6 6 5 6 6 6 7 7 7 6 6 6 6 5 6 6 5 6 7 10 14 16 17 17
53 45 39 33 29 25 20 15 11 9 8 8 8 8 7 7 6 6 6 6 6 6 5 6 7 7 7 7 6 6 6 5 6 6 6 6 5 6 9 11 14 16
60 51 44 38 34 31 28 23 18 14 11 8 7 7 7 7 7 7 7 7 7 7 6 6 6 7 7 7 7 6 6 6 6 6 6 6 6 6 6 7 10 12
69 63 55 46 40 39 37 32 26 21 17 14 11 9 8 7 7 7 7 7 7 7 7 7 7 7 7 7 7 7 6 6 6 7 6 6 6 6 6 6 7 8
79 75 69 59 53 51 49 44 36 29 24 19 16 12 10 9 8 7 7 7 7 7 7 7 7 7 7 8 7 7 7 7 6 6 6 6 6 6 6 6 6 7

ECMWFNIL_500_rhum_069.txt.gz
RH
14 17 17 16 15 15 14 16 19 20 21 20 17 19 23 22 17 13 10 7 8 8 9 9 9 10 10 10 10 10 9 8 7 6 6 6 6 7 8 10 12 12
12 15 16 15 15 15 15 15 16 18 19 18 17 18 21 18 14 11 9 6 6 8 10 9 8 9 10 10 10 9 8 7 7 6 6 6 7 7 9 10 11 12
10 12 14 15 15 15 15 15 15 15 16 16 17 17 17 15 12 10 8 7 7 8 8 8 8 9 10 10 10 8 8 8 7 6 6 6 7 7 8 10 10 11
9 10 12 13 13 13 14 14 14 13 14 16 16 16 14 13 11 9 8 7 7 7 7 8 7 8 10 10 9 8 7 8 7 7 6 6 8 7 8 9 10 10
9 9 10 11 12 13 13 14 14 13 13 15 15 14 13 11 10 9 8 7 7 7 6 7 7 7 9 9 9 8 7 8 7 7 6 6 7 7 8 8 9 10
8 8 9 9 10 12 13 13 13 12 13 13 13 13 11 10 9 8 8 7 6 7 6 6 6 7 8 9 9 8 7 8 7 7 7 6 7 7 8 9 9 10
7 7 7 8 9 11 12 13 12 11 12 12 12 11 10 9 9 8 8 7 6 6 6 6 6 6 7 7 7 8 7 8 8 8 8 7 7 7 7 9 9 10
7 6 6 7 7 9 11 12 12 11 11 10 10 10 9 8 8 8 7 7 6 6 6 6 6 5 6 6 6 7 8 9 10 10 10 8 8 9 8 9 9 9
7 6 6 7 6 8 9 10 12 11 10 10 9 9 9 8 8 7 7 7 6 6 5 5 6 5 6 6 6 7 8 10 13 14 14 14 13 14 14 14 15 15
6 6 5 7 6 6 8 9 11 11 10 10 8 8 8 7 7 6 6 6 6 6 5 5 6 5 5 5 6 7 9 12 16 18 18 19 20 21 21 21 21 21
6 6 5 6 6 6 7 7 9 10 10 10 8 8 8 7 7 6 6 6 6 6 5 5 6 5 5 5 5 7 10 14 18 20 21 21 21 22 22 22 22 22
5 5 5 6 5 6 6 6 8 8 9 10 9 8 7 7 7 6 6 6 5 5 5 5 5 5 5 5 5 7 11 16 20 20 21 21 22 22 22 22 22 23
6 5 5 6 5 6 6 5 7 7 8 9 9 8 7 7 7 6 6 6 5 5 5 5 5 5 5 5 5 7 12 17 21 21 21 21 22 22 22 22 23 23
7 5 5 5 5 5 6 6 6 6 7 8 9 8 8 7 7 6 5 5 5 5 5 5 5 5 5 5 6 8 12 18 21 22 22 22 22 23 23 23 24 24
8 7 5 5 5 5 5 5 5 6 7 7 8 8 8 7 6 6 5 5 5 5 5 5 6 5 5 5 6 8 12 17 21 22 23 24 23 23 23 23 24 25
7 9 7 5 5 5 5 5 5 6 6 6 8 8 8 8 7 6 5 5 5 6 5 6 6 6 6 5 5 7 11 16 20 22 23 24 24 24 24 24 24 25
10 8 9 9 7 5 5 5 5 5 6 6 7 7 8 8 7 7 6 5 5 5 5 6 6 7 7 6 6 6 9 14 18 21 22 23 24 24 24 23 23 24
19 10 8 9 9 8 6 5 5 5 5 6 6 6 7 7 7 7 6 6 5 5 5 6 6 7 7 6 7 6 7 10 15 18 20 21 23 24 24 23 22 22
38 22 11 7 8 9 8 6 5 5 5 5 5 6 6 6 7 7 7 6 6 5 5 6 6 7 7 7 7 7 7 7 10 13 16 18 20 22 23 23 21 20
56 40 24 13 7 7 8 7 6 5 5 5 5 5 5 5 6 6 6 7 6 6 6 6 6 6 6 7 7 7 7 7 7 9 11 12 15 18 21 22 20 18
69 59 45 29 14 6 6 7 7 7 6 5 5 5 5 5 5 6 6 6 6 6 6 6 6 7 6 6 7 7 7 7 6 7 7 8 10 12 16 18 18 16
78 72 64 51 34 18 9 5 6 7 7 6 6 5 5 5 5 5 5 5 5 5 6 6 6 6 6 7 7 7 7 6 7 7 6 6 7 8 10 12 13 13
85 80 77 69 56 41 27 14 7 5 7 7 7 6 6 5 5 5 5 5 5 5 5 5 5 5 5 6 6 6 6 6 6 6 6 6 6 6 6 7 9 10
90 84 82 78 70 62 52 36 19 8 5 6 7 7 7 6 6 5 5 4 5 5 5 5 5 5 5 5 5 5 5 5 6 5 6 6 6 6 6 6 7 8
95 90 84 80 76 73 67 56 38 20 9 5 5 6 7 8 7 6 6 5 5 5 5 5 5 5 5 5 5 5 4 4 5 5 5 6 6 6 6 6 6 6
92 92 89 84 80 75 71 66 55 36 18 9 6 5 5 7 8 7 7 7 6 6 5 5 5 5 5 5 4 5 5 4 4 5 5 5 6 6 6 6 7 7

ECMWFNIL_500_rhum_072.txt.gz
RH
16 19 21 20 18 16 15 18 24 29 29 25 23 22 23 21 17 14 15 12 10 10 10 10 9 9 10 11 10 10 11 10 9 8 7 6 6 7 8 7 7 8
15 17 19 20 18 16 15 16 21 25 26 23 21 21 20 20 16 15 14 11 8 8 7 7 7 7 9 9 9 10 9 9 8 7 6 6 5 6 8 7 7 7
13 15 17 19 18 16 14 15 18 22 23 23 22 20 20 20 17 14 13 10 7 6 6 7 6 6 7 7 8 8 8 8 7 7 7 6 6 6 7 7 7 7
10 13 14 16 16 16 14 14 16 18 20 21 21 20 19 19 16 13 11 9 7 5 6 7 6 6 7 7 7 7 7 7 7 7 7 6 6 6 6 7 7 7
8 10 12 13 14 15 15 14 14 15 17 18 18 19 19 18 15 12 9 8 7 6 6 6 6 5 6 6 7 7 6 6 6 6 6 5 6 6 6 7 7 7
7 8 10 11 12 14 14 14 14 14 15 15 16 17 18 16 14 11 9 7 6 6 6 5 5 5 5 6 6 6 6 6 7 6 5 5 5 5 6 6 7 7
5 8 9 10 11 12 13 14 13 14 13 13 14 16 16 15 13 10 8 7 6 6 6 5 5 5 5 5 5 6 6 6 7 6 5 5 5 6 7 7 8 8
5 6 7 9 9 10 12 13 12 13 13 12 13 15 14 13 12 10 8 7 6 5 5 4 4 5 4 5 5 5 6 6 7 7 6 6 6 6 7 8 8 8
9 7 5 8 8 8 11 12 12 12 12 12 12 14 14 12 11 10 8 7 6 5 5 4 4 4 4 4 4 4 6 7 8 8 7 6 6 7 7 7 8 8
8 6 6 7 7 7 9 10 12 12 11 11 12 12 13 11 10 9 8 7 6 5 5 5 4 4 4 4 4 4 5 6 8 10 10 8 7 8 8 8 9 10
8 5 6 6 6 6 7 9 10 11 11 11 11 11 11 10 9 8 8 7 6 6 5 4 4 4 4 4 4 4 5 6 8 12 13 12 12 11 12 12 12 13
10 5 6 6 6 6 5 7 8 9 10 10 10 10 10 9 9 8 7 7 6 5 5 5 4 4 4 3 3 4 5 6 8 13 16 16 17 16 16 16 16 16
12 5 6 5 6 6 5 6 7 8 9 9 10 9 9 9 8 8 7 6 6 5 5 5 4 4 4 3 3 3 4 6 8 13 17 18 18 18 18 19 19 19
22 9 5 6 6 6 5 5 5 7 8 8 9 9 8 8 7 7 7 6 6 5 4 5 4 4 4 3 4 4 4 6 8 13 17 18 19 19 19 21 21 21
37 19 8 6 6 4 5 5 5 6 6 7 8 8 8 8 7 7 7 6 6 5 4 5 4 4 5 4 4 4 4 5 8 12 16 17 19 20 20 22 22 22
55 43 25 12 7 5 5 4 4 5 5 6 7 7 8 8 6 6 6 6 5 5 4 5 4 5 5 5 4 4 4 6 8 11 15 16 18 19 21 22 22 22
68 60 39 21 13 9 6 5 5 5 5 5 6 7 7 7 7 7 6 6 5 5 4 4 4 5 5 5 5 4 4 5 7 10 13 15 17 19 21 22 22 22
67 61 43 26 16 10 8 7 5 4 5 5 5 6 6 7 7 6 6 6 5 5 5 4 4 5 5 5 5 5 5 5 6 8 10 13 16 18 20 21 21 22
60 60 52 36 21 11 8 8 7 6 5 5 4 5 5 6 7 7 7 6 5 5 4 4 4 4 5 5 5 5 5 5 5 6 8 10 13 15 18 20 21 22
66 61 59 51 37 21 10 6 7 7 5 5 5 5 5 5 6 6 6 6 6 6 5 4 5 5 4 5 5 5 5 5 5 6 6 8 10 12 15 17 19 21
84 72 64 60 54 41 25 13 7 6 7 7 5 4 5 5 5 5 6 6 6 6 6 5 4 4 5 4 4 5 5 5 5 6 6 7 7 9 12 14 16 19
93 87 76 68 63 58 47 31 17 9 6 6 6 6 5 5 5 5 4 5 6 6 6 7 6 5 5 5 5 5 5 5 5 6 6 6 6 7 9 10 12 14
87 89 87 80 71 64 59 50 37 22 11 6 6 7 7 5 5 6 5 5 5 5 5 6 6 6 6 6 6 5 5 5 5 6 6 6 7 7 7 8 9 10
80 81 85 86 80 72 66 60 51 36 22 11 5 8 15 12 5 4 6 5 5 5 5 5 5 6 6 6 6 6 6 6 5 6 6 6 7 7 6 7 7 8
76 78 82 86 86 82 74 67 62 55 44 30 16 14 18 17 14 11 7 6 6 5 4 5 5 5 5 5 6 5 5 6 5 6 6 6 7 7 6 7 6 6
67 71 76 82 89 90 84 76 70 67 64 58 48 38 29 28 32 24 9 6 9 7 6 6 5 5 5 4 5 5 4 5 5 5 5 5 5 5 5 6 6 6

ECMWFNIL_500_rhum_075.txt.gz
RH
12 11 13 13 12 14 14 14 19 26 31 31 28 26 25 26 26 20 15 13 10 9 9 8 9 11 12 11 11 10 7 11 19 12 5 5 5 6 6 6 7 9
12 12 12 13 13 13 14 13 17 25 30 31 28 26 24 24 25 20 14 12 9 8 8 8 8 7 8 9 10 10 8 8 12 8 5 6 5 6 6 5 6 7
11 12 12 13 13 12 13 13 15 22 28 29 27 24 22 21 21 18 14 11 9 6 6 6 6 6 6 7 9 12 11 8 8 7 5 5 4 6 6 5 6 6
10 11 11 12 13 12 12 12 13 19 25 28 25 21 19 18 17 16 13 11 9 6 5 4 5 5 5 6 7 9 10 8 8 7 6 6 5 6 7 6 6 6
8 9 10 11 12 13 13 12 12 16 22 25 24 20 17 15 14 14 12 10 8 5 4 4 5 5 5 6 6 7 7 7 7 7 7 8 7 7 7 6 6 6
8 9 9 9 11 12 13 13 11 14 19 23 23 20 17 14 13 12 11 9 6 5 4 4 4 4 4 5 6 6 6 6 7 7 7 8 8 7 6 6 6 6
8 8 8 9 9 11 12 12 12 12 16 19 20 20 17 14 12 11 10 8 5 5 5 3 4 4 3 4 4 6 7 6 7 7 6 6 6 6 6 6 6 7
9 6 8 9 7 9 11 11 12 12 13 16 17 18 17 14 13 12 9 7 5 4 4 3 3 3 3 3 4 5 6 6 7 7 6 6 5 5 6 6 6 7
15 7 7 9 8 8 9 9 11 11 12 13 14 15 15 13 12 12 9 7 5 4 4 3 3 3 3 3 3 4 5 6 6 7 6 6 6 6 6 7 7 7
24 13 6 7 7 8 8 8 9 10 11 12 12 13 13 12 11 11 10 7 5 4 3 3 3 3 3 3 3 4 5 6 7 7 8 7 6 6 6 7 8 8
27 19 9 6 9 11 9 7 8 9 9 10 11 11 11 11 10 9 9 7 6 4 3 3 3 3 3 2 3 4 4 5 7 8 9 8 7 6 7 7 7 8
34 27 14 5 8 13 10 6 7 8 8 9 10 10 10 9 9 9 9 7 6 4 3 2 2 2 3 3 3 4 4 5 7 8 9 10 9 8 8 8 9 10
49 43 25 8 10 18 15 7 6 7 7 8 8 8 9 8 8 8 8 7 6 4 3 3 3 2 3 3 3 3 3 4 6 8 10 11 11 11 11 11 12 13
51 51 42 28 25 27 18 7 5 6 6 7 7 8 8 8 8 7 8 7 6 5 3 2 2 3 2 3 3 3 3 4 5 7 9 12 13 13 13 14 14 15
53 50 47 42 36 27 13 4 4 6 5 5 6 7 8 7 7 7 7 7 6 5 4 3 2 3 3 3 3 3 3 3 4 5 7 11 14 14 14 15 15 16
60 51 45 42 37 27 14 8 7 5 5 8 6 5 8 8 7 8 7 8 7 6 5 3 2 3 3 3 3 3 3 3 3 5 6 9 13 14 15 15 16 17
62 52 47 45 42 33 19 16 19 11 3 6 7 5 6 6 7 8 7 7 7 6 6 4 3 3 3 3 3 3 3 3 3 4 6 8 11 13 13 14 16 17
70 59 55 53 52 45 31 30 37 28 11 6 5 4 6 6 6 7 7 8 7 6 6 5 4 4 3 3 4 3 3 4 4 4 5 7 9 11 11 12 13 15
79 71 67 62 56 54 50 49 53 48 36 21 8 3 4 5 5 6 6 7 8 7 7 6 4 5 4 3 3 3 4 3 3 4 4 5 7 8 9 10 10 13
79 77 79 76 64 56 56 56 56 55 52 45 34 22 10 3 5 7 5 6 7 6 7 7 6 4 4 4 4 3 4 4 4 4 4 4 5 6 7 9 9 11
73 73 77 80 74 65 59 58 57 53 54 63 65 52 30 14 8 7 5 5 7 7 7 6 7 6 5 4 4 4 4 3 3 4 4 4 5 5 6 7 8 10
69 67 69 72 75 78 76 71 65 57 57 66 71 68 59 43 27 20 16 8 3 5 8 7 6 7 6 5 5 4 4 4 3 4 5 5 5 5 6 6 7 8
65 63 64 63 65 75 84 82 75 67 63 65 67 70 72 66 55 49 43 31 15 6 4 6 7 7 7 7 6 5 4 4 4 4 4 5 6 6 6 6 7 7
63 62 63 63 62 64 73 83 87 82 72 66 67 67 64 62 57 52 49 49 41 22 7 4 6 6 7 7 6 7 6 5 4 5 4 5 6 7 7 7 7 7
56 54 53 60 63 62 65 73 82 88 85 78 75 72 68 63 58 52 47 49 53 47 29 14 7 4 6 7 6 6 7 6 6 5 5 5 6 6 7 7 7 7
47 49 45 46 50 58 69 73 71 77 86 86 79 74 74 73 70 66 59 50 50 56 52 41 28 14 5 4 6 6 6 6 7 6 6 7 6 6 7 6 7 8

ECMWFNIL_500_rhum_078.txt.gz
RH
10 10 10 8 9 12 11 12 15 19 22 23 26 24 19 20 20 15 12 10 10 9 8 7 8 13 15 9 11 17 14 12 11 7 4 5 6 6 6 10 13 10
11 10 10 9 7 9 11 12 14 17 22 25 26 25 21 20 18 14 12 10 10 10 9 8 7 9 11 9 9 12 14 18 18 11 5 5 6 6 5 8 12 12
10 10 10 9 8 8 10 12 12 15 21 26 27 24 21 19 17 15 12 10 9 9 8 8 7 7 7 8 10 10 11 16 20 15 7 4 7 9 7 6 7 10
9 10 10 9 9 9 10 12 12 13 18 24 27 24 21 19 17 16 13 11 9 8 7 6 6 6 5 6 11 14 15 16 17 16 12 8 7 8 8 5 4 6
8 11 10 9 10 11 10 11 11 12 16 22 26 25 22 19 17 15 14 12 9 8 7 5 4 5 5 5 8 11 16 15 10 11 15 15 9 6 7 6 5 5
7 8 11 10 10 11 12 12 11 11 14 19 24 25 23 20 17 15 14 12 10 8 6 5 4 4 4 5 5 6 9 9 6 6 9 12 10 7 7 7 6 6
17 10 10 10 11 11 12 12 11 11 12 16 22 24 23 21 16 14 13 12 10 8 5 4 4 4 3 4 5 6 6 5 7 8 6 7 9 7 6 6 6 7
36 26 16 9 10 11 11 12 12 12 12 13 18 23 23 21 18 14 13 12 10 8 6 4 3 3 3 3 4 5 7 6 6 7 7 6 7 6 6 6 6 7
52 50 34 14 9 10 10 11 11 11 12 12 14 19 21 20 18 15 12 11 10 8 5 4 3 3 2 3 4 4 6 7 6 7 7 6 6 6 6 6 6 7
54 53 38 18 12 12 9 9 11 11 11 12 11 14 18 19 18 17 13 11 11 8 6 4 3 3 2 2 3 4 5 6 7 7 7 6 6 6 6 7 7 7
44 47 41 26 17 16 14 9 8 10 10 10 11 11 13 15 15 16 14 12 11 9 6 5 3 3 3 3 2 3 5 5 6 7 7 7 6 6 6 7 7 8
40 45 43 32 20 23 32 22 8 9 10 9 11 10 10 13 13 14 14 12 12 10 7 5 4 3 2 3 3 3 4 5 6 7 8 8 8 7 7 7 7 8
54 51 46 42 28 23 34 27 7 9 16 12 10 12 11 10 11 12 13 12 11 10 9 6 4 4 3 2 3 3 3 4 5 6 8 9 9 8 7 7 7 8
59 56 51 52 41 27 33 30 13 15 25 18 9 11 14 13 12 11 11 11 11 10 10 8 6 4 3 3 3 3 3 4 4 6 7 9 10 10 9 9 9 9
52 52 50 50 43 36 40 37 18 13 23 24 15 9 11 12 12 13 10 9 11 11 10 9 8 6 4 3 3 3 3 4 4 5 6 7 9 11 11 11 11 12
55 54 56 55 50 47 51 45 28 17 25 38 32 14 8 9 9 10 11 10 10 11 11 10 8 7 6 4 3 3 3 3 3 4 5 6 8 11 12 12 12 13
67 60 58 57 55 59 66 64 50 38 37 45 40 18 4 7 9 7 8 10 9 9 10 10 10 8 7 6 4 3 3 4 3 3 3 5 6 8 11 13 13 13
80 74 64 59 59 65 73 73 65 56 47 48 55 42 14 3 9 11 9 8 9 9 9 9 9 9 7 6 5 4 4 3 4 4 4 4 5 6 10 12 13 13
82 81 77 75 79 83 84 78 69 65 58 53 62 67 47 24 14 10 8 8 7 8 9 9 9 9 8 8 6 5 5 4 4 4 4 4 4 5 8 10 12 14
75 77 78 82 87 87 83 77 71 70 70 62 56 58 60 54 39 23 18 16 11 9 8 8 10 9 8 9 8 6 5 4 4 4 5 5 5 5 7 8 10 12
68 69 71 74 81 81 80 84 87 84 80 74 62 54 55 58 54 48 43 37 30 21 12 7 8 9 9 9 9 8 7 5 4 4 4 5 5 5 5 6 7 9
59 63 63 63 69 77 82 86 92 93 88 82 74 67 65 62 56 53 55 57 54 43 28 16 8 6 8 9 8 9 8 6 6 5 5 6 6 6 6 5 6 7
49 55 61 62 61 67 74 75 80 89 91 89 85 80 76 71 63 56 56 62 64 56 44 32 18 8 7 8 8 9 8 8 7 5 5 6 6 6 7 7 7 6
46 49 61 72 70 65 64 67 77 87 88 87 90 89 84 77 72 69 67 67 67 60 49 43 36 23 13 7 6 7 8 8 8 7 6 6 6 7 7 7 8 8
40 42 50 62 66 63 61 62 73 87 92 89 88 89 90 87 81 79 76 72 70 66 56 49 47 40 29 19 11 8 7 7 7 7 7 6 5 6 7 6 7 7
30 32 35 39 43 52 58 59 64 77 84 84 84 85 87 90 88 83 78 73 71 69 63 56 52 49 42 30 17 7 5 10 11 7 7 9 8 6 7 7 6 6

ECMWFNIL_500_rhum_084.txt.gz
RH
13 14 14 13 11 12 12 12 17 22 27 29 29 25 20 21 19 13 14 14 12 18 21 15 15 17 13 13 15 12 7 7 8 8 8 9 11 11 11 12 12 12
15 14 14 14 11 12 13 14 15 19 25 28 29 27 22 24 23 15 13 14 11 11 14 13 15 17 13 12 18 18 11 8 7 7 8 9 10 10 12 12 13 13
15 14 15 15 13 12 14 16 15 16 21 26 29 29 24 26 27 20 14 14 12 10 10 10 12 15 12 10 14 16 16 15 10 6 7 8 8 10 12 12 13 13
12 15 14 15 15 13 13 14 14 15 18 23 28 30 26 25 27 23 16 14 13 11 11 11 11 12 11 10 11 11 17 21 15 8 7 7 7 9 12 15 13 12
7 11 14 15 15 14 13 13 13 14 16 19 25 30 29 25 24 23 18 16 14 12 10 10 11 11 10 10 11 11 14 19 18 13 7 6 8 8 9 14 15 13
8 9 12 14 15 14 13 13 13 14 15 16 21 27 30 27 24 23 21 18 16 13 11 9 9 10 9 8 12 15 14 16 19 17 10 7 10 10 8 10 13 14
9 7 9 11 12 12 12 12 13 13 14 15 17 23 29 29 25 23 22 20 18 15 12 9 7 7 8 7 9 14 17 18 18 15 13 12 10 9 9 7 8 11
22 12 9 8 9 10 10 10 12 13 13 14 15 18 24 29 28 24 22 21 19 16 13 11 8 6 6 6 7 10 13 17 15 9 11 15 11 8 7 6 6 7
48 35 25 16 10 12 14 13 13 14 16 15 14 15 18 24 28 27 24 21 20 18 14 11 9 7 6 6 7 8 8 10 10 6 6 10 10 8 6 6 7 6
68 64 58 43 23 13 12 13 15 16 17 17 16 16 16 18 23 27 26 23 20 19 16 13 11 8 6 6 6 7 8 8 8 7 7 7 7 8 7 7 7 6
76 80 81 72 53 34 19 11 12 14 15 16 16 16 16 16 18 22 25 25 22 20 18 17 14 10 7 6 6 6 7 8 8 8 8 7 7 7 7 7 6 6
77 82 85 83 77 68 48 26 17 16 13 13 14 14 15 16 16 17 20 23 24 22 20 18 17 14 9 7 7 6 6 7 8 8 8 8 7 7 6 6 6 6
80 82 85 85 81 78 66 46 33 25 17 13 12 12 14 14 15 16 16 18 21 21 21 20 18 17 13 8 7 6 6 6 6 8 8 7 7 7 7 6 6 6
88 86 88 92 90 82 69 55 48 43 35 28 18 11 12 12 12 14 14 14 16 18 18 18 18 18 16 12 8 6 6 5 5 6 7 7 8 8 7 7 7 7
94 90 87 88 89 84 71 60 58 56 52 48 37 22 16 13 11 11 12 13 13 14 16 16 16 17 17 15 11 8 6 5 5 5 5 6 7 7 8 8 8 7
95 92 89 83 79 79 76 69 64 59 55 57 55 44 31 19 11 9 11 14 15 13 13 14 14 15 16 16 14 10 8 6 5 5 4 5 5 6 7 8 8 8
95 91 89 82 74 74 76 71 61 56 56 61 65 66 55 33 17 13 14 15 17 16 14 13 13 13 13 14 14 12 9 7 5 4 4 4 4 5 6 7 8 9
97 91 87 82 77 78 81 76 64 56 58 65 72 81 78 50 24 19 21 17 15 17 17 14 13 12 12 12 12 12 10 8 6 5 4 5 5 4 5 6 7 8
90 93 91 85 84 85 86 84 77 67 64 68 75 86 89 68 38 23 24 24 20 15 14 13 12 11 11 11 11 11 11 10 8 6 5 5 5 5 5 5 5 6
76 83 83 80 84 91 92 88 84 80 79 81 84 89 92 86 65 36 24 31 34 25 13 9 9 9 9 10 10 10 11 11 10 9 8 6 6 6 5 5 5 5
69 70 69 69 75 86 95 96 94 93 92 91 91 90 88 89 82 59 36 31 38 37 23 9 6 8 8 8 9 9 10 10 11 10 10 9 7 7 6 6 5 5
56 57 57 60 65 71 81 92 98 98 93 86 81 79 77 78 80 74 56 38 34 39 35 22 10 5 6 8 9 9 9 9 9 10 10 10 9 7 6 6 6 5
40 44 47 51 56 61 66 74 84 91 92 88 81 76 75 75 76 77 68 52 44 44 46 42 31 17 11 10 8 8 9 8 9 9 9 9 9 7 7 6 5 5
31 34 36 39 44 52 56 60 67 76 83 84 81 79 79 79 81 84 76 60 54 55 53 52 50 42 33 23 12 8 8 7 8 9 9 9 9 8 7 6 6 5
33 33 31 31 35 41 45 48 53 59 64 66 66 69 75 76 81 90 86 67 61 68 67 60 55 52 49 41 29 20 14 12 10 7 7 8 8 8 8 7 6 7
31 33 31 28 29 32 34 37 41 43 44 44 43 46 55 63 70 79 82 72 70 78 81 74 64 57 53 52 47 39 34 33 30 21 15 13 9 6 7 8 7 7

ECMWFNIL_500_rhum_087.txt.gz
RH
15 17 18 16 13 13 14 18 23 24 26 29 26 22 19 16 13 14 16 16 19 22 15 10 15 16 13 12 9 8 7 6 7 8 9 10 10 11 13 13 15 17
14 15 18 18 15 14 13 14 19 23 26 29 28 22 18 16 13 12 14 14 17 21 16 12 17 16 13 14 11 8 7 7 7 8 8 9 10 10 12 12 13 15
15 13 15 17 15 14 13 13 15 20 24 27 27 25 20 17 15 12 12 12 12 15 15 14 17 17 12 15 16 10 7 7 6 7 7 8 10 10 11 11 12 12
14 13 12 15 16 14 13 14 15 17 20 24 27 27 24 20 18 14 11 11 11 10 10 11 15 16 12 14 19 15 10 9 7 6 7 8 8 10 11 11 11 12
11 12 11 12 15 15 14 14 16 16 17 21 25 29 28 23 21 20 15 12 12 11 9 9 10 13 12 11 15 15 16 17 11 5 6 7 7 8 10 11 11 12
7 10 11 11 13 15 15 14 14 15 15 17 21 26 30 28 24 24 23 18 14 12 12 10 9 11 11 10 11 12 15 21 18 10 6 6 6 7 8 11 12 12
7 7 9 11 12 13 14 13 13 14 14 15 17 21 27 30 28 27 26 22 17 14 12 12 11 10 9 9 10 11 14 18 19 16 10 5 6 8 8 9 12 13
14 8 8 9 12 12 12 12 13 14 15 16 16 17 21 27 31 30 27 25 21 18 14 12 11 9 9 8 7 10 14 16 18 19 15 8 7 8 9 9 9 11
27 16 11 9 10 12 11 11 12 13 15 16 16 16 17 21 28 31 31 28 25 22 18 15 12 9 8 7 6 7 11 15 19 20 16 13 12 11 10 9 8 8
45 29 19 13 9 10 11 11 11 12 14 15 15 15 16 17 22 27 30 31 28 25 21 18 15 12 9 7 6 5 7 11 16 17 13 11 13 13 10 8 7 7
66 52 40 27 13 9 9 10 11 11 12 15 15 15 14 15 17 21 25 29 30 28 25 21 18 15 11 8 6 5 6 6 9 11 10 7 9 11 10 8 6 7
80 73 65 49 31 20 12 8 10 11 10 13 15 16 15 14 15 17 20 24 27 28 27 24 21 17 14 11 7 5 5 5 5 7 8 7 7 8 8 7 7 7
86 82 77 67 56 46 29 13 8 9 10 11 13 15 16 15 14 15 16 19 22 24 25 25 23 20 17 14 10 7 5 5 5 5 7 8 7 7 7 7 7 7
86 84 80 72 68 66 56 38 22 13 9 9 12 14 15 16 15 14 14 15 17 19 21 22 22 22 20 17 14 11 7 5 4 4 5 6 7 8 7 7 7 6
85 83 80 76 72 73 74 67 53 38 24 15 12 12 12 14 14 14 14 14 15 16 17 18 19 19 20 19 17 14 11 7 5 4 4 4 6 7 7 7 7 6
90 85 81 81 80 76 76 75 69 60 48 36 25 16 12 11 11 11 12 12 13 13 14 16 16 17 17 18 17 16 14 11 7 5 4 4 4 5 6 7 7 7
94 91 87 85 83 79 78 78 74 67 60 54 44 32 26 23 18 12 10 10 11 12 12 13 14 14 15 16 16 16 15 14 11 8 5 4 4 4 5 6 6 7
91 95 93 90 87 82 79 79 75 69 62 58 54 49 46 45 41 34 25 16 11 10 11 13 13 13 14 14 15 15 14 14 12 10 7 5 4 4 4 5 5 6
85 90 91 93 93 87 82 77 73 69 64 60 61 60 58 58 58 58 52 39 23 12 11 12 12 13 14 15 15 14 13 13 13 11 10 7 5 4 3 3 4 4
69 75 82 93 97 92 86 80 73 69 67 65 63 60 57 58 62 68 70 64 44 23 15 15 14 12 13 14 15 14 12 12 12 12 11 9 8 6 5 4 4 3
59 61 68 82 92 94 92 87 82 77 73 72 70 63 55 52 58 66 75 78 64 38 21 18 16 15 14 12 11 11 12 11 11 12 12 11 10 8 6 5 4 4
57 59 62 68 76 83 86 88 92 91 84 81 82 78 68 60 61 64 69 78 77 61 42 30 21 17 18 17 11 8 8 10 11 10 10 11 11 10 8 6 4 4
39 45 52 57 62 67 69 71 77 82 83 85 89 86 80 80 84 81 77 77 80 78 72 62 45 30 25 26 23 14 8 7 8 9 10 10 10 10 9 9 7 6
31 28 31 37 44 53 56 56 57 61 68 78 84 80 78 84 90 91 88 83 78 77 79 77 70 56 43 40 39 31 21 13 7 6 8 8 9 10 10 9 9 8
34 26 22 22 27 33 37 38 39 42 49 61 71 74 75 78 79 79 80 78 73 72 71 71 74 73 65 61 60 56 52 42 29 20 16 12 9 8 8 9 10 10
38 32 27 23 21 22 23 24 25 27 32 41 53 65 71 75 75 72 70 70 73 75 74 74 78 80 78 78 77 74 73 69 57 48 43 36 24 15 10 9 8 8

ECMWFNIL_500_rhum_093.txt.gz
RH
17 17 15 13 12 14 15 20 23 23 22 19 19 20 18 16 15 16 17 15 11 9 10 10 8 8 8 7 7 6 7 8 9 9 10 11 13 15 17 18 20 22
15 16 17 15 12 12 13 16 20 23 24 22 20 21 19 17 16 15 16 17 14 13 15 13 10 9 10 8 7 7 6 7 8 9 9 10 12 13 15 17 18 20
13 15 17 16 14 12 12 13 16 20 24 23 22 23 22 20 17 15 15 16 16 15 16 16 12 11 13 13 11 9 7 7 8 9 9 10 11 11 13 14 16 18
11 12 14 16 16 15 13 12 13 16 19 22 24 26 26 23 19 16 14 13 14 14 16 17 13 12 15 15 14 12 10 7 7 8 8 9 10 10 11 11 12 14
11 11 12 14 17 17 15 13 12 13 15 19 23 26 27 26 23 18 15 13 12 13 15 17 15 14 15 15 14 14 13 9 7 7 7 8 9 10 10 10 10 10
11 11 12 12 14 17 17 15 12 11 12 15 19 24 26 27 25 21 18 15 13 12 13 15 14 14 15 16 15 14 14 13 10 8 8 7 7 8 10 10 10 10
12 13 13 13 13 15 16 16 14 11 11 12 15 19 23 26 26 24 21 18 16 13 11 12 12 12 12 13 13 12 13 14 13 13 13 11 8 7 8 9 10 10
10 11 13 14 15 15 15 15 15 12 10 10 12 14 18 22 24 24 23 21 19 16 14 12 11 11 11 11 11 11 10 11 11 13 16 16 12 9 7 7 8 9
12 10 10 10 12 14 15 14 14 13 11 10 10 12 14 17 21 23 23 22 20 19 18 15 12 12 12 12 11 10 10 9 9 10 13 16 16 14 10 7 6 7
30 23 17 12 10 10 11 13 13 13 13 11 10 10 12 13 16 20 23 22 21 20 19 17 14 13 13 13 12 10 9 8 7 7 9 12 15 16 15 11 8 8
59 50 40 30 22 15 10 10 12 14 14 13 11 9 10 12 14 17 21 23 22 21 20 19 18 15 14 14 14 13 11 9 7 6 6 8 10 13 14 13 11 10
82 75 66 56 45 34 21 12 9 12 15 16 15 12 10 10 12 13 17 21 23 23 23 22 20 18 16 15 15 14 12 10 9 7 6 6 6 8 10 11 10 10
95 90 86 80 71 61 48 30 15 10 13 16 17 17 14 11 11 13 14 17 20 24 26 25 24 22 19 17 16 14 13 12 10 8 7 6 5 6 6 7 8 8
99 96 95 93 88 82 74 60 38 17 10 12 15 17 16 13 11 12 13 14 16 20 24 26 27 26 23 20 18 15 13 12 11 10 9 7 6 5 5 6 6 7
99 98 98 96 95 92 86 81 67 40 18 11 13 15 16 14 13 13 13 13 14 16 20 24 27 28 26 23 21 18 16 14 12 11 9 8 7 6 5 5 5 6
98 99 99 97 99 99 93 89 85 68 42 21 13 14 15 14 13 13 14 14 14 14 15 18 21 24 26 26 25 23 21 19 17 14 12 10 8 6 5 4 4 4
98 99 100 99 98 100 97 90 90 89 73 47 25 14 13 15 14 14 15 15 15 15 15 16 17 19 21 23 25 25 25 24 22 20 18 15 12 10 7 6 5 4
99 98 96 95 93 93 93 90 92 97 94 77 51 26 15 13 12 12 14 15 16 15 14 14 15 15 16 17 19 21 22 22 22 21 20 19 17 15 12 10 8 7
98 93 88 89 91 91 92 93 96 100 100 95 81 59 39 26 22 23 20 16 16 16 15 15 14 14 14 14 15 16 17 18 18 18 19 19 19 18 16 15 13 11
90 84 82 88 93 95 96 97 99 100 100 99 97 90 77 65 61 58 44 24 15 13 13 14 13 13 13 12 12 12 12 13 13 14 15 16 16 17 17 16 15 14
80 79 79 81 83 87 94 98 98 100 100 100 100 99 95 91 90 86 73 56 44 36 29 25 23 23 26 26 24 23 20 16 12 11 12 13 13 15 16 16 15 15
74 74 74 75 74 79 89 95 97 99 100 100 101 99 98 99 98 94 89 84 80 73 63 55 49 47 49 50 49 49 47 40 30 21 15 14 14 13 14 15 15 15
72 66 68 79 84 85 92 98 98 100 101 100 100 100 100 101 100 98 96 94 91 86 80 74 69 66 65 65 63 62 63 64 60 46 30 21 18 17 16 15 14 13
70 63 64 78 88 87 89 92 92 94 98 99 100 101 100 100 98 96 95 92 87 84 82 78 75 73 72 70 68 66 65 70 74 71 57 41 30 27 25 21 17 14
60 61 61 69 79 80 75 74 75 81 88 92 95 96 95 94 94 93 94 94 92 90 88 83 79 78 79 78 77 75 71 70 74 79 79 72 63 58 54 44 32 22
49 60 63 63 68 69 62 57 58 62 70 75 79 83 83 80 79 79 81 84 87 93 96 95 94 93 93 93 94 92 88 84 83 85 87 89 89 90 88 79 65 51

ECMWFNIL_500_rhum_096.txt.gz
RH
14 13 12 11 13 15 18 21 22 22 21 20 21 21 17 15 17 20 22 19 12 8 9 9 8 8 8 8 9 9 10 10 10 11 12 14 16 17 18 19 20 22
14 14 13 12 11 12 14 17 21 24 23 21 22 23 20 18 17 18 20 21 17 12 10 10 10 9 8 8 9 8 9 9 9 9 10 11 13 15 16 17 18 20
13 14 14 13 11 11 12 13 17 22 24 24 23 22 21 20 19 18 18 19 20 19 16 14 14 12 11 11 10 8 8 8 8 9 9 9 10 12 13 14 16 17
11 12 13 14 12 11 10 10 13 16 20 23 25 24 22 21 19 18 17 17 18 20 20 17 16 14 13 13 14 12 10 8 8 8 9 9 9 10 10 11 12 13
9 10 11 13 13 12 11 9 10 12 14 19 22 24 25 23 20 19 17 15 14 16 18 17 17 15 13 14 15 15 13 11 9 7 8 9 9 9 10 9 10 10
9 9 9 11 12 13 12 10 9 9 10 13 17 21 24 23 22 22 19 16 15 15 14 15 16 15 14 14 16 16 16 16 14 9 8 8 7 9 10 9 10 9
9 10 9 9 10 11 11 11 10 9 8 9 12 15 20 22 23 23 21 18 18 17 15 15 17 17 14 13 15 17 16 15 14 12 11 10 9 7 8 9 10 10
9 10 10 10 10 10 10 10 9 9 8 8 9 10 14 18 21 23 22 21 19 18 15 14 15 15 14 11 11 13 13 12 12 13 13 13 13 11 9 8 8 9
8 10 11 12 12 11 11 11 10 10 9 8 8 8 10 13 17 20 23 23 22 19 15 12 11 11 12 12 11 11 12 11 10 12 13 14 15 16 14 11 9 8
7 8 10 11 12 13 13 13 12 12 11 10 9 8 9 10 13 17 20 23 25 22 17 14 13 12 12 14 14 13 12 11 10 10 11 13 14 15 16 16 15 11
16 13 12 11 10 10 11 11 12 12 11 11 10 9 9 9 11 14 17 22 25 26 23 19 17 15 14 14 15 15 12 11 10 8 9 11 11 12 13 15 17 16
41 34 30 28 24 19 15 12 11 10 10 11 10 10 9 9 10 11 14 17 20 23 25 25 22 19 17 16 15 15 14 12 12 10 9 9 8 9 10 11 14 15
71 67 63 60 56 49 42 34 26 19 13 10 9 11 11 9 9 9 11 12 14 17 21 25 27 25 22 20 18 18 17 15 14 13 12 10 9 8 8 8 10 11
89 91 91 90 86 81 74 66 56 45 34 22 12 9 10 11 10 9 9 9 10 13 16 19 24 28 27 24 22 21 20 19 18 16 15 13 11 9 7 7 7 7
95 99 100 99 98 96 95 89 80 70 61 49 32 16 9 10 12 10 9 9 9 10 12 15 19 24 27 28 26 25 23 21 20 19 17 15 14 12 11 9 7 6
99 98 98 100 100 99 100 99 94 88 80 73 61 41 19 9 10 12 10 9 9 9 10 12 14 17 22 25 26 26 26 25 24 22 20 19 17 16 14 12 11 9
100 98 97 99 100 100 101 100 99 97 92 87 83 70 47 21 9 10 12 10 9 10 11 11 13 15 17 19 22 24 25 26 26 25 25 23 22 20 19 17 15 13
100 99 99 100 100 98 98 97 97 97 97 96 94 91 78 51 23 11 11 12 10 9 11 11 12 13 14 15 17 19 21 23 23 24 25 24 24 23 21 21 19 18
93 94 94 95 95 93 91 91 93 95 98 99 99 99 95 79 53 28 13 11 12 11 10 11 12 14 14 13 15 16 17 18 18 19 20 20 20 21 21 20 20 20
84 87 87 85 86 88 88 88 90 93 97 99 98 100 99 93 78 54 28 14 13 13 11 11 12 13 13 13 14 15 15 15 15 15 15 15 15 16 16 16 16 18
78 83 84 82 83 86 85 83 87 94 99 99 98 98 98 96 91 77 53 29 16 15 16 17 15 13 13 14 14 14 15 14 14 13 12 12 12 12 13 12 13 14
79 80 82 80 79 82 81 79 82 88 90 92 95 97 98 99 97 92 77 55 36 32 36 37 27 15 11 13 13 13 14 13 14 15 16 16 16 13 12 11 11 13
75 78 79 78 77 78 79 79 82 86 87 90 95 97 98 100 100 98 93 82 69 63 66 67 56 34 20 17 17 17 17 19 24 31 35 37 35 31 25 17 13 13
63 66 66 69 73 77 80 83 88 91 92 94 97 99 98 98 100 100 99 97 92 86 84 85 82 69 56 49 46 43 39 39 42 48 53 56 56 57 52 43 34 23
47 49 57 65 69 72 75 81 87 91 95 98 99 100 99 99 100 100 99 100 99 95 92 92 92 90 85 79 75 70 66 63 60 60 62 62 63 65 64 63 64 54
64 57 60 65 68 71 73 77 80 83 90 95 94 94 97 98 98 100 100 101 100 98 97 96 94 91 87 82 79 77 75 72 70 69 71 71 69 67 63 63 71 73

ECMWFNIL_500_rhum_102.txt.gz
RH
35 35 32 31 37 41 39 39 36 32 37 42 40 39 34 28 34 34 25 23 19 13 17 18 15 14 14 13 9 8 12 14 15 17 18 17 18 21 22 22 22 22
34 30 32 38 38 34 36 40 38 37 40 41 46 52 44 30 30 31 24 23 20 15 17 17 14 13 12 14 13 9 10 12 11 13 18 18 14 17 20 20 22 23
21 20 23 31 32 31 36 35 32 37 39 35 35 39 43 40 35 33 28 26 26 23 21 17 14 13 11 13 16 15 14 15 13 12 16 15 10 13 15 16 22 25
14 15 14 16 19 23 29 31 30 28 27 31 32 30 39 46 48 49 38 29 31 30 29 27 18 15 16 14 13 14 15 15 12 11 11 10 9 10 10 11 14 15
13 14 14 13 14 15 18 28 32 25 22 29 29 30 38 40 47 55 45 33 29 23 29 35 23 18 22 20 15 14 16 17 15 14 11 7 7 8 8 10 10 8
11 12 13 13 13 13 13 22 25 19 20 23 17 20 29 26 30 40 40 41 38 27 29 34 29 24 21 21 18 13 16 21 20 20 18 13 10 8 6 10 14 11
9 10 10 11 12 12 12 16 16 12 12 13 9 11 17 17 19 22 26 36 42 40 38 38 39 32 24 28 26 16 16 20 18 19 22 21 16 11 8 9 11 9
8 8 9 9 9 10 10 11 12 11 11 11 9 9 9 11 16 18 20 25 29 33 37 43 48 41 33 36 32 23 21 19 15 15 17 19 16 13 14 12 9 7
7 8 8 9 8 9 9 8 8 10 10 11 11 11 9 8 12 15 17 20 21 21 24 32 39 37 35 34 27 27 30 22 18 18 17 19 16 13 16 16 15 12
8 8 7 8 8 8 8 8 8 8 8 10 10 10 11 9 10 12 11 13 17 19 20 22 26 27 31 33 28 28 32 27 20 16 15 17 14 11 13 15 20 22
8 8 6 7 7 7 8 7 8 8 7 9 9 9 10 9 9 10 9 9 12 17 19 20 23 24 25 28 27 27 32 32 26 18 14 14 11 10 11 12 16 21
9 9 7 7 6 6 8 7 8 9 8 8 8 8 9 9 10 10 9 9 10 17 22 19 19 22 23 23 21 23 31 35 33 28 22 19 14 9 9 11 12 14
16 12 9 9 7 5 6 6 7 8 8 9 9 8 7 8 9 10 12 12 9 16 22 19 17 19 22 26 24 22 25 30 36 36 33 34 28 15 10 10 8 10
26 22 16 12 9 7 6 6 7 7 8 9 9 10 10 10 9 9 12 14 13 14 15 19 24 21 17 22 28 28 23 22 34 38 34 40 38 22 16 14 11 11
35 39 33 22 18 16 12 11 12 12 14 15 17 20 22 23 22 19 15 14 15 16 13 18 29 26 20 23 28 35 35 27 30 32 31 42 43 27 20 18 12 11
41 45 42 33 32 33 31 32 33 33 35 38 41 45 48 50 50 47 41 33 29 25 20 25 33 26 22 23 21 29 38 31 27 29 32 44 46 31 23 21 17 17
46 45 44 44 45 47 51 56 59 61 65 68 71 74 76 79 81 80 77 72 66 53 39 42 49 33 17 15 12 14 21 21 22 26 29 41 54 52 41 29 21 21
54 51 50 51 53 58 66 72 73 76 80 84 88 90 90 92 96 98 97 94 94 87 73 70 72 49 17 8 12 11 10 14 18 18 20 35 57 63 52 38 32 36
62 61 59 58 61 69 79 84 85 87 90 93 94 94 94 96 97 98 98 99 99 99 96 93 91 71 34 10 10 11 10 11 12 13 15 22 32 35 34 39 47 50
68 70 70 69 69 77 87 92 94 94 95 97 98 96 95 98 99 96 96 100 99 98 100 99 99 96 72 37 15 9 12 12 9 11 14 13 17 19 18 27 39 45
78 79 80 82 83 85 90 96 99 98 96 97 98 98 97 98 100 98 97 99 96 95 98 99 98 100 97 77 43 15 9 12 12 12 13 13 14 16 15 17 26 37
90 91 91 93 96 94 93 95 96 96 95 96 96 97 99 100 98 97 98 97 93 93 97 99 99 98 100 100 79 41 11 7 17 20 15 13 13 13 15 15 15 20
95 96 95 97 99 97 94 93 91 90 93 96 97 96 97 96 94 95 96 91 90 96 100 99 100 99 99 101 99 77 33 8 18 26 16 12 14 15 19 24 30 43
100 98 95 95 96 96 94 93 92 92 93 96 99 97 94 92 91 94 96 91 88 94 99 100 100 100 101 99 101 99 67 25 18 29 24 16 17 17 19 26 45 70
99 97 95 94 93 91 91 94 96 96 96 98 100 97 94 93 90 90 92 90 88 91 96 101 101 99 101 101 98 103 91 55 33 34 30 22 20 20 17 19 35 61
94 92 92 92 89 84 83 87 91 92 92 94 95 92 87 85 86 89 92 90 91 96 98 99 101 100 100 101 99 101 99 83 64 54 45 37 37 38 33 24 25 36

ECMWFNIL_500_rhum_105.txt.gz
RH
28 36 38 37 38 40 41 35 30 30 33 38 36 30 29 33 39 39 31 28 22 14 17 19 16 15 14 14 12 10 12 14 15 17 17 18 18 19 20 21 21 20
31 35 37 33 31 36 38 37 38 35 33 39 46 50 44 32 33 35 29 29 25 17 18 19 15 13 14 14 15 12 10 11 13 12 14 19 16 13 16 17 19 22
27 34 35 32 34 41 38 33 36 36 37 42 43 48 51 41 35 32 29 29 27 23 21 19 15 14 13 12 16 18 15 15 16 13 12 15 12 9 11 11 13 19
18 23 24 22 26 32 32 33 34 32 34 38 36 34 38 42 44 42 38 32 31 33 31 26 23 18 17 17 15 15 15 16 17 14 12 11 8 8 8 7 9 11
16 18 17 16 17 18 20 26 30 32 30 27 27 29 32 39 46 52 53 43 34 32 31 35 35 24 21 25 21 17 17 18 20 20 19 16 10 7 7 7 9 11
15 15 16 16 16 15 15 16 21 30 32 24 23 28 31 37 41 44 51 48 41 33 26 32 38 32 28 27 25 22 17 16 22 24 25 26 23 17 11 7 8 11
13 14 14 14 15 15 15 15 14 19 23 19 20 21 18 24 29 31 35 39 42 42 36 34 37 38 35 28 29 32 23 18 21 22 22 24 24 22 17 13 12 10
11 13 13 13 14 13 13 14 13 14 15 13 13 13 9 11 17 20 24 27 31 38 42 43 42 45 44 36 38 44 34 24 24 21 19 18 18 19 17 16 18 15
10 10 11 12 12 12 11 11 12 11 13 13 11 11 10 10 10 12 15 20 22 27 33 36 39 47 49 41 40 40 33 31 32 26 20 19 20 20 16 15 17 18
11 9 10 11 10 11 11 10 11 10 10 11 11 11 11 10 10 9 11 15 18 19 22 24 27 34 37 35 35 34 30 32 35 30 22 19 17 15 15 14 12 17
14 11 9 9 9 10 11 10 10 10 9 9 9 9 10 10 11 10 9 11 13 14 15 17 20 23 25 27 30 31 32 32 33 33 29 22 18 15 13 11 9 16
17 14 11 10 10 9 9 9 9 9 9 9 9 8 9 9 9 10 10 10 10 10 10 12 15 18 20 23 25 27 29 28 30 35 35 30 24 18 15 13 9 10
20 15 12 10 10 9 9 9 8 8 8 8 9 9 8 9 9 9 9 9 10 9 8 9 13 18 19 18 20 22 23 23 25 31 36 36 32 28 26 20 10 11
29 23 20 16 13 11 10 9 8 7 7 7 8 8 9 12 15 15 14 13 12 10 8 8 12 18 22 22 18 18 21 23 24 25 29 34 36 36 36 33 31 30
38 31 29 26 23 19 15 12 10 7 6 6 8 8 9 11 16 19 18 15 13 11 11 12 12 15 23 30 29 23 20 21 23 24 24 26 31 37 41 52 64 59
64 54 48 41 34 29 22 17 13 10 8 7 6 8 8 9 13 19 23 26 26 25 27 30 29 21 17 27 35 30 21 20 25 29 28 26 27 30 34 48 63 64
80 76 75 72 65 58 50 40 26 17 16 13 11 12 15 20 27 35 45 55 60 61 61 61 59 44 25 26 38 35 25 22 25 27 30 32 30 25 27 41 55 58
75 75 78 83 82 78 77 71 56 40 32 31 32 35 39 46 54 62 71 79 86 92 93 90 88 81 65 56 56 51 39 27 17 15 20 23 24 24 27 34 46 56
70 71 73 77 79 78 80 83 78 62 49 48 53 58 65 71 75 80 86 89 92 96 99 100 99 99 96 91 85 80 71 50 22 7 9 12 12 18 24 26 38 58
64 63 63 67 73 76 77 77 77 69 57 56 61 65 73 81 85 90 92 91 91 94 98 101 100 98 97 98 99 98 95 82 48 16 6 9 10 13 16 17 27 43
70 65 62 61 64 69 75 76 75 73 66 63 68 74 81 87 90 95 94 91 93 98 99 99 99 99 94 93 98 100 99 98 83 49 18 7 7 11 12 12 16 21
77 72 69 68 65 63 68 73 76 76 72 69 72 79 87 91 92 93 90 88 93 98 100 99 99 100 94 87 92 100 99 97 99 88 61 29 9 7 11 12 13 15
82 79 76 75 75 70 67 69 74 77 77 75 75 79 85 90 93 92 87 84 87 91 96 99 100 101 95 84 84 96 102 99 98 101 97 72 34 10 8 14 14 13
86 87 85 83 84 82 77 75 80 85 86 85 83 84 87 90 91 90 85 83 88 93 96 98 99 99 94 85 84 91 97 100 99 98 102 99 72 30 9 15 18 14
80 88 96 96 94 93 90 88 91 94 94 93 92 91 92 92 90 87 83 83 88 95 98 99 99 97 91 87 87 88 91 96 101 100 97 102 98 62 22 14 20 17
55 68 84 93 97 98 97 97 99 99 96 95 95 96 96 95 93 90 86 83 85 91 96 99 99 95 91 91 93 94 97 97 99 102 99 99 103 86 44 21 24 24

ECMWFNIL_500_rhum_111.txt.gz
RH
37 37 34 36 37 34 30 22 21 29 27 24 28 24 22 25 23 22 22 20 17 15 15 14 12 12 14 15 17 18 18 20 19 20 21 21 23 24 25 26 25 25
31 37 36 36 43 46 43 31 22 27 31 32 33 27 24 28 31 33 32 25 20 16 15 16 13 11 13 13 13 12 13 15 16 17 18 18 20 22 22 21 22 21
23 34 40 40 43 45 45 41 34 34 35 35 36 36 35 35 34 37 37 30 25 20 16 17 16 13 13 13 12 12 10 11 13 13 13 16 18 18 17 17 19 19
23 30 37 40 39 36 38 41 39 40 39 37 39 44 47 46 40 35 33 30 28 24 19 18 17 14 12 12 13 15 14 13 14 13 12 13 14 13 11 12 13 13
23 27 31 37 38 35 36 41 42 41 39 37 40 43 45 48 46 40 36 33 30 27 24 24 23 20 16 14 14 15 14 13 14 15 14 13 12 10 8 7 8 8
19 21 24 30 34 33 32 35 37 35 33 33 36 37 36 37 38 39 41 42 40 35 30 30 30 28 26 22 18 17 17 16 16 17 19 19 18 17 13 10 8 7
20 19 19 21 24 24 22 22 22 21 23 27 29 31 31 28 25 28 33 42 49 49 42 37 32 28 29 29 25 23 21 19 17 16 17 19 20 22 21 16 12 9
21 20 20 19 19 19 18 17 16 14 15 18 21 24 28 26 22 22 26 33 42 49 49 45 38 31 28 29 28 28 25 22 20 18 16 16 16 17 17 16 14 14
22 19 18 18 17 17 17 17 16 16 14 13 14 17 19 18 17 17 19 22 25 31 36 38 38 37 37 35 35 36 34 30 28 26 22 19 16 15 15 16 16 15
19 18 16 16 15 14 14 15 15 15 15 14 13 13 13 12 12 12 11 11 11 14 18 21 24 30 35 37 39 42 43 42 39 33 27 24 23 21 18 16 15 14
16 16 16 15 14 13 12 13 13 13 13 13 13 12 12 11 11 11 10 10 9 9 10 11 14 18 23 27 32 34 37 41 41 36 31 29 29 28 23 18 14 11
12 14 16 15 14 13 12 12 13 13 12 12 12 10 10 10 10 10 10 10 10 9 9 9 9 11 14 18 23 23 23 27 29 29 30 31 31 30 29 28 25 19
10 11 13 14 13 13 13 12 12 12 11 10 10 9 9 9 9 9 9 9 9 9 10 10 9 9 10 12 15 16 16 17 18 20 24 26 27 28 29 34 38 37
17 14 12 13 14 14 12 13 13 13 12 11 10 10 9 9 9 9 9 8 9 8 8 9 9 9 9 10 10 10 10 11 12 15 19 20 21 23 26 34 42 47
30 25 24 26 25 20 17 17 17 16 14 13 11 11 10 9 9 8 8 8 9 9 9 8 9 9 9 9 9 9 9 9 11 14 17 19 19 17 18 24 32 37
38 42 43 40 32 24 21 20 20 18 16 14 12 11 10 9 9 7 7 7 7 8 9 8 8 9 8 9 10 10 9 8 7 10 13 18 23 25 24 23 23 23
58 64 60 48 38 34 30 28 28 27 26 25 23 20 17 14 12 9 7 6 6 7 8 8 10 11 11 11 11 12 16 21 26 28 25 19 18 22 24 25 23 20
78 78 71 63 61 60 54 48 47 46 42 38 33 29 27 23 20 16 12 8 7 7 7 7 9 11 13 14 19 34 52 67 74 75 68 57 49 47 47 46 44 38
85 77 71 70 77 81 77 72 72 70 65 58 51 48 46 44 42 38 30 21 13 10 9 8 9 13 19 28 43 64 82 92 94 91 85 82 82 83 83 81 79 75
90 79 71 69 73 79 79 80 83 81 76 73 72 71 71 71 70 67 61 51 37 24 18 17 19 23 33 48 65 76 82 86 89 85 81 82 86 87 88 87 87 88
98 93 85 77 77 81 84 87 87 82 76 73 71 71 73 74 75 75 75 73 66 54 42 35 38 43 50 60 69 74 74 78 84 88 90 94 95 94 94 94 93 89
99 98 93 87 86 89 91 90 86 80 75 70 66 65 63 62 64 69 73 74 74 74 67 56 52 54 60 66 71 73 75 78 84 93 98 100 99 99 99 99 99 98
100 98 96 94 93 90 90 90 89 87 82 76 72 72 71 72 77 85 86 80 75 78 81 77 70 63 62 68 75 77 74 74 80 89 95 97 98 99 99 98 99 101
96 95 92 90 86 83 85 89 92 90 89 89 89 89 87 86 86 89 90 87 82 79 78 79 82 79 73 70 73 76 75 75 80 88 93 96 97 95 93 92 93 99
89 91 91 87 81 79 82 86 87 82 80 86 91 92 92 89 85 85 88 88 87 85 81 77 77 78 79 79 77 75 76 77 80 84 89 92 93 93 92 90 90 95
82 85 89 85 80 82 85 85 86 84 79 77 79 83 89 93 94 95 94 91 89 90 92 89 80 72 73 78 80 79 80 81 80 82 86 88 87 89 93 93 94 97

ECMWFNIL_500_rhum_114.txt.gz
RH
32 33 31 29 27 23 22 21 22 26 26 24 27 27 23 20 18 18 19 17 16 15 14 13 13 14 15 16 18 19 20 21 21 22 23 24 25 26 26 27 27 26
35 35 34 34 33 29 28 25 22 26 26 24 28 27 24 26 25 24 24 20 18 16 15 15 14 13 14 15 17 18 18 20 21 21 21 21 21 21 23 23 23 23
34 36 34 33 36 39 40 35 26 25 28 29 31 29 26 27 29 31 32 28 23 20 17 16 16 14 13 14 14 13 13 14 15 17 18 18 19 20 21 21 20 20
27 33 36 35 37 43 47 44 35 30 32 32 32 33 33 33 33 33 33 29 26 24 20 17 17 16 14 13 14 14 13 12 12 14 14 14 15 16 17 16 15 15
19 25 35 38 39 42 44 42 39 37 38 36 33 34 39 42 41 38 34 30 28 26 23 19 19 19 16 14 13 14 15 15 14 15 15 14 13 13 13 11 9 10
17 21 30 36 38 39 38 37 38 40 39 38 36 35 38 41 44 43 40 37 35 33 29 24 23 24 24 23 20 17 17 17 16 16 17 18 19 19 18 16 13 10
17 21 25 30 33 36 37 37 38 40 40 37 34 34 34 34 35 36 36 36 39 42 42 38 33 29 28 27 26 24 23 23 21 19 19 19 21 23 25 26 23 18
16 18 20 22 25 30 35 35 33 33 32 27 26 29 30 29 29 28 27 27 30 36 44 48 45 39 34 29 27 26 26 26 24 21 19 19 19 20 22 23 21 18
18 18 18 19 19 21 26 26 24 22 20 17 18 21 23 24 27 28 25 23 24 27 33 41 44 42 38 34 30 29 28 28 27 24 23 23 22 21 20 19 18 18
21 20 20 20 19 18 20 20 18 18 17 15 15 15 16 17 20 21 19 18 19 20 22 25 27 27 28 28 28 30 31 31 32 31 30 29 26 22 20 19 19 19
24 23 22 22 21 19 19 18 17 17 16 16 15 15 14 14 14 14 13 13 12 12 12 11 12 13 14 15 18 22 25 26 29 33 36 36 31 27 25 24 24 22
26 25 23 20 19 19 17 16 16 15 15 15 14 14 14 13 13 13 12 12 11 10 10 9 9 9 9 10 10 13 15 18 21 24 27 30 29 28 27 26 27 27
22 25 23 19 17 16 15 14 13 13 12 13 13 13 12 12 12 11 10 11 10 10 10 10 9 9 9 8 8 8 9 12 14 16 17 18 19 20 21 23 25 26
20 23 22 19 16 14 13 13 13 12 11 12 12 12 12 12 11 10 9 9 10 10 9 9 9 9 9 9 8 8 7 8 10 11 11 11 12 13 14 16 18 19
18 20 20 17 16 13 12 13 13 12 11 11 12 12 11 11 10 9 9 9 9 9 9 9 9 8 8 7 7 7 7 7 7 8 8 9 10 13 16 17 18 18
14 14 15 13 12 12 12 12 12 12 12 11 11 12 12 11 11 10 10 9 9 8 8 8 9 9 9 8 8 8 7 7 8 8 8 7 8 10 13 15 18 20
22 14 16 17 20 21 17 14 16 18 17 14 14 14 14 12 11 11 11 10 10 9 8 7 7 7 8 8 8 8 8 9 9 9 12 18 23 26 26 24 23 24
36 24 28 31 30 27 22 23 27 27 22 19 18 16 15 16 15 13 14 14 12 11 9 8 8 7 7 8 7 8 11 11 11 22 43 60 68 71 69 65 61 60
54 40 39 37 33 31 32 34 34 30 25 23 25 29 38 47 39 24 21 22 19 16 14 10 9 7 7 8 7 7 11 14 22 46 75 89 93 94 91 85 81 81
76 62 53 49 47 47 49 49 44 40 37 38 44 52 63 73 62 44 39 39 34 33 31 28 24 17 11 9 9 9 12 16 30 57 82 90 90 90 87 82 81 82
92 80 69 65 67 67 67 63 55 53 56 63 72 76 78 82 79 72 72 68 62 63 64 61 56 46 32 22 15 14 17 24 38 59 76 85 86 85 82 79 78 79
98 92 82 76 78 78 75 68 62 68 79 87 91 88 86 89 89 87 91 90 87 88 87 84 82 76 65 54 42 35 35 40 52 65 76 82 85 83 80 78 79 80
99 98 92 88 88 85 79 72 73 83 93 96 95 93 93 95 94 91 92 91 89 88 87 87 90 88 82 75 67 62 58 56 60 65 70 75 79 79 80 83 89 94
100 99 97 97 97 92 86 84 86 92 95 94 94 94 96 98 97 94 93 93 93 93 92 92 95 95 91 85 78 74 72 69 66 64 64 66 69 74 80 85 89 92
101 101 100 100 99 96 95 96 96 98 98 96 95 95 97 100 100 98 99 100 99 99 99 98 98 97 96 94 90 83 76 71 67 66 69 72 74 76 78 78 78 78
96 95 94 93 94 94 95 94 92 91 92 92 94 97 96 95 95 94 94 95 95 96 98 98 97 97 97 99 101 97 89 82 76 72 73 78 82 83 82 83 85 85

ECMWFNIL_500_rhum_117.txt.gz
RH
24 24 22 20 21 20 19 18 17 19 20 18 18 16 14 13 14 15 15 14 13 13 13 12 13 14 16 17 18 19 20 21 21 21 22 22 23 24 24 24 24 25
25 27 26 24 23 21 19 19 19 21 22 20 20 20 17 16 16 16 17 16 15 14 13 13 13 13 14 15 17 19 19 20 20 20 20 20 20 20 20 21 21 21
27 30 31 30 29 26 24 22 20 21 23 22 22 22 19 18 19 20 21 20 17 16 15 14 13 12 13 14 15 16 16 17 17 17 18 18 17 17 17 18 19 19
30 32 33 33 34 33 32 31 27 23 23 26 28 27 24 23 23 25 27 26 22 19 17 16 15 14 13 13 14 14 13 13 12 12 13 15 15 14 14 15 16 15
27 31 34 35 35 36 38 41 39 32 28 29 31 31 29 29 30 29 28 27 25 23 20 17 16 16 14 13 12 13 13 14 14 14 14 15 15 15 14 14 13 12
22 26 32 35 36 36 39 45 46 41 37 35 34 32 30 32 36 37 35 31 28 26 24 20 17 17 18 17 15 14 14 14 15 15 15 16 17 18 18 19 19 18
17 19 24 30 35 37 39 43 44 42 40 39 37 34 31 32 35 38 39 37 34 33 32 29 23 20 21 22 22 21 19 18 18 18 18 18 18 19 19 20 22 22
14 15 16 21 29 35 38 40 39 38 38 40 40 37 33 31 31 32 33 32 30 31 32 35 34 30 28 27 25 23 22 21 21 21 21 20 18 17 16 16 17 18
13 14 15 17 22 28 33 36 37 36 36 38 39 36 32 28 28 29 28 26 24 23 23 26 31 34 36 35 31 28 24 22 21 21 21 20 18 17 16 16 16 16
15 15 15 16 20 23 26 29 32 34 35 34 31 27 23 21 23 25 26 26 25 22 21 21 23 28 31 32 31 28 26 25 25 26 25 25 23 21 19 18 17 16
17 16 16 17 18 20 22 22 24 27 28 26 21 18 17 16 17 18 20 21 19 17 17 17 18 19 19 19 19 19 19 20 22 26 28 29 29 29 27 24 21 19
21 19 18 18 18 19 20 20 20 20 20 19 17 16 16 15 15 15 15 14 12 11 12 12 12 11 10 10 10 10 11 11 15 20 23 23 24 26 27 25 24 22
25 23 19 19 19 19 20 20 21 21 19 18 17 16 16 16 15 15 15 13 13 12 11 11 11 10 9 8 8 8 8 8 9 12 15 17 18 18 18 18 18 18
28 25 20 18 18 18 19 20 20 20 20 18 17 16 15 15 14 14 14 14 13 13 12 12 11 11 10 9 8 9 8 8 8 9 10 12 12 12 12 12 13 14
29 25 22 18 16 16 17 18 18 18 18 16 15 15 14 13 13 13 13 14 13 12 12 11 11 11 10 9 9 9 9 9 9 9 9 9 9 9 8 8 10 12
22 20 20 18 16 14 13 14 15 15 15 14 13 13 12 11 11 12 12 12 12 12 11 10 10 11 10 9 9 8 8 8 8 9 9 9 9 8 8 9 10 11
25 18 16 14 13 12 12 12 12 11 13 13 11 11 11 11 12 12 13 14 12 10 11 10 10 10 10 9 8 8 8 8 8 8 8 9 9 10 10 9 9 11
54 39 27 19 13 11 9 9 11 10 9 9 9 10 10 11 14 14 12 13 15 13 11 11 10 10 9 8 7 7 7 8 8 8 9 10 11 11 12 15 23 32
85 70 60 50 39 29 19 11 8 9 11 12 12 14 16 23 36 36 24 15 14 14 12 12 12 11 11 10 8 8 7 7 7 7 10 13 11 12 24 42 59 69
95 89 87 83 73 64 56 41 22 15 20 21 20 22 27 41 61 63 43 28 26 26 23 21 20 18 16 13 11 10 9 8 8 7 9 13 13 20 38 61 77 83
95 93 95 96 90 83 82 77 58 41 33 30 37 45 39 40 61 68 53 44 48 49 41 36 37 37 35 32 29 26 20 15 12 10 9 11 14 24 41 59 70 75
97 95 97 99 97 88 86 91 87 72 55 49 63 72 54 40 54 66 60 56 61 64 61 60 62 64 61 62 63 60 54 44 35 28 24 21 22 28 40 54 64 68
98 98 98 98 100 97 94 97 94 83 74 70 73 75 66 59 65 71 72 73 74 76 78 78 80 80 78 79 81 82 81 76 68 60 53 48 46 46 49 54 59 63
99 100 98 97 99 99 98 100 98 91 87 85 80 76 76 78 80 83 86 88 86 85 83 82 82 83 81 81 82 84 87 87 86 83 77 72 68 65 64 63 62 62
100 100 99 98 97 98 98 100 102 98 93 92 91 88 85 85 86 90 94 96 95 92 89 87 87 88 88 88 88 89 91 92 92 91 88 85 79 74 71 69 67 67
99 99 100 99 97 98 100 100 101 100 97 97 97 95 92 90 90 92 96 98 99 98 96 96 97 97 97 95 93 93 94 93 92 91 91 91 89 85 81 76 72 69

ECMWFNIL_500_rhum_123.txt.gz
RH
6 7 7 7 8 8 8 9 9 10 11 11 12 13 13 14 14 14 18 18 16 18 18 17 17 18 18 18 18 18 19 19 18 17 16 15 16 15 15 16 15 14
9 9 9 10 9 9 10 10 9 10 10 10 12 13 13 13 13 13 14 15 15 16 16 15 15 15 15 16 17 18 18 17 15 14 14 14 14 13 12 13 12 11
14 13 12 13 13 13 13 12 13 13 13 13 13 13 14 14 14 13 13 15 15 15 15 15 15 15 16 15 16 16 17 18 16 14 13 12 12 11 10 10 9 8
16 16 16 16 16 17 17 16 16 16 17 18 17 17 17 17 16 14 15 15 16 16 17 18 16 17 18 16 14 15 14 14 13 11 11 10 9 10 9 9 8 8
18 17 20 20 19 19 19 18 18 18 19 21 21 21 20 21 19 18 18 16 15 15 15 16 16 15 16 15 14 14 12 14 16 12 10 10 10 11 11 12 13 13
19 19 22 24 23 23 22 20 19 19 20 20 21 21 22 23 21 20 21 19 20 22 22 25 25 21 23 22 18 17 15 17 19 15 13 14 12 12 14 15 16 15
18 19 22 25 27 28 27 26 25 24 24 23 22 22 23 26 25 23 23 23 26 31 32 35 33 29 29 27 22 21 19 18 18 15 17 17 14 14 17 18 16 15
16 19 23 25 28 30 31 32 31 31 32 31 29 26 25 26 27 25 25 25 29 31 30 31 31 28 27 25 22 22 21 22 22 22 22 22 21 20 19 18 16 14
14 16 20 23 26 28 30 32 32 32 34 36 37 34 32 32 30 27 25 25 29 32 33 33 33 32 32 30 28 26 26 25 24 25 26 27 28 26 23 23 21 19
15 15 18 20 23 25 26 29 31 32 34 36 37 37 37 38 36 32 29 28 28 30 31 32 32 32 32 32 32 32 32 33 30 29 28 26 25 25 25 25 24 24
16 15 17 18 19 21 21 22 24 26 31 35 36 36 36 37 37 35 33 33 31 27 25 28 28 27 26 25 27 28 29 30 30 29 31 31 28 26 28 29 28 28
14 14 15 14 15 16 16 17 17 17 21 25 29 30 29 30 31 33 36 35 31 24 20 22 22 25 27 24 25 30 34 35 32 30 38 48 47 37 38 45 43 41
12 14 14 12 13 13 13 14 14 14 14 16 21 23 23 22 21 26 32 34 31 22 17 20 22 23 26 29 30 29 30 38 40 34 33 42 47 39 39 49 48 44
12 13 15 15 15 14 15 15 13 12 13 13 16 19 20 20 17 17 21 27 33 27 20 23 24 18 21 33 39 30 20 26 35 35 31 37 50 51 46 46 45 45
12 14 16 16 17 17 20 23 18 14 12 12 14 15 16 17 17 16 15 21 32 34 32 39 40 29 24 30 40 40 31 30 33 33 34 43 56 62 56 50 50 57
16 15 15 16 20 23 28 34 34 28 22 18 16 15 15 15 15 16 15 17 24 27 31 44 48 38 29 24 32 39 38 40 44 37 35 42 49 52 53 53 55 60
18 15 16 18 23 26 31 39 45 47 42 36 29 23 19 18 16 17 16 15 19 22 28 40 36 23 19 19 23 27 25 28 36 31 25 26 31 41 49 52 51 49
17 17 21 23 24 24 27 35 43 48 47 46 47 42 31 21 15 18 19 15 17 23 37 58 61 46 32 21 16 18 16 15 16 15 12 10 13 24 35 44 49 46
22 22 25 25 26 24 25 27 30 32 33 40 53 58 51 37 22 17 20 19 17 18 26 46 66 73 61 37 22 20 17 14 11 9 9 10 10 11 14 26 39 37
27 24 25 24 25 24 23 23 26 29 29 33 46 54 59 57 42 26 19 17 17 18 16 18 39 64 64 43 32 26 17 14 14 11 12 11 10 15 19 22 25 20
29 24 25 25 26 25 25 31 43 52 51 48 51 54 59 64 59 42 24 15 15 18 17 19 38 57 48 26 23 21 15 17 17 12 14 13 12 24 33 30 23 16
36 38 41 43 47 49 48 52 59 63 64 68 73 72 69 70 69 58 41 30 29 28 20 19 36 49 32 13 16 17 16 27 27 14 13 18 23 34 38 33 29 22
53 56 58 63 72 79 82 81 76 68 67 75 82 80 78 79 78 74 68 62 59 54 41 31 42 57 46 27 25 26 28 42 43 30 26 30 31 34 37 37 38 36
62 63 65 73 84 90 91 91 89 86 82 81 81 81 85 90 88 85 87 87 83 79 72 60 62 74 71 51 34 30 37 51 53 46 45 48 47 47 53 57 58 61
69 73 76 82 87 88 87 84 83 88 90 88 86 85 88 94 97 95 95 96 96 93 89 81 74 74 76 64 41 29 36 51 58 57 59 64 68 70 73 76 76 76
77 81 85 88 87 87 89 86 82 86 91 93 93 93 93 95 98 99 97 98 101 98 93 91 85 79 80 74 54 40 41 47 54 63 68 73 79 81 80 80 78 76